Home > Weather > Pori > Past weeks

Flag for Finland Past Weather in Pori, Finland — Yesterday and Last 2 Weeks

Now
57 °F

Overcast.


Feels Like: 56 °F
Forecast: 55 / 67 °F
Wind: 7 mph from South

Location: Pori Airport

Current Time: Aug 25, 2016 at 7:50:55 AM

Latest Report: Aug 25, 2016 at 7:20 AM


Visibility: N/A

Pressure: 30.07 "Hg

Humidity: 94%

Dew Point: 55 °F

Location of PoriLocation

Past Weather in Pori — Graph

°F

Pori Temperature Yesterday

Maximum temperature yesterday: 68 °F (at 2:20 PM)
Minimum temperature yesterday: 50 °F (at 4:20 AM)
Average temperature yesterday: 58 °F

High & Low Weather Summary for the Past Weeks

 TemperatureHumidityPressure
High73 °F (Aug 21, 4:50 PM)100% (Aug 13, 9:20 AM)30.21 "Hg (Aug 13, 9:20 AM)
Low46 °F (Aug 11, 10:50 PM)42% (Aug 10, 6:50 PM)29.56 "Hg (Aug 13, 8:50 AM)
Average58 °F84%29.90 "Hg
* Reported Aug 10 6:20 AM — Aug 25 6:20 AM, Pori, Weather by CustomWeather, © 2016

Note: Actual official high and low records may vary slightly from our data, if they occured in-between our weather recording intervals... More about our weather records

Advertising

Pori Weather History for the Previous 24 Hours

Scroll right to see more
 ConditionsComfort  
Time TempWeatherWind HumidityBarometerVisibility
6:20 AM
Thu, Aug 25
55 °FOvercast.9 mph88%30.07 "HgN/A
5:50 AM54 °FMostly cloudy.8 mph94%30.09 "HgN/A
5:20 AM54 °FPassing clouds.13 mph94%30.09 "HgN/A
4:50 AM54 °FPassing clouds.9 mph94%30.12 "HgN/A
4:20 AM54 °FPassing clouds.8 mph100%30.12 "HgN/A
3:50 AM54 °FLow clouds.10 mph100%30.15 "HgN/A
3:20 AM54 °FLight rain. Overcast.7 mph100%30.15 "Hg4 mi
2:50 AM54 °FFog.5 mph100%30.15 "Hg2 mi
2:20 AM54 °FFog.6 mph100%30.18 "Hg2 mi
1:50 AM54 °FFog.6 mph100%30.18 "Hg3 mi
1:20 AM54 °FLow clouds.5 mph100%30.18 "Hg6 mi
12:50 AM54 °FLow clouds.5 mph94%30.18 "HgN/A
12:20 AM54 °FLow clouds.3 mph100%30.18 "HgN/A
11:50 PM
Wed, Aug 24
54 °FLow clouds.3 mph100%30.18 "HgN/A
11:20 PM55 °FLow clouds.5 mph94%30.18 "HgN/A
10:50 PM55 °FLow clouds.3 mph94%30.21 "HgN/A
10:20 PM55 °FLow clouds.5 mph94%30.21 "HgN/A
9:50 PM55 °FLow clouds.5 mph94%30.21 "HgN/A
9:20 PM55 °FLow clouds.5 mph100%30.21 "HgN/A
8:50 PM55 °FLow clouds.7 mph94%30.21 "HgN/A
8:20 PM55 °FLow clouds.6 mph100%30.21 "HgN/A
7:50 PM57 °FLow clouds.8 mph94%30.21 "HgN/A
7:20 PM57 °FBroken clouds.8 mph94%30.21 "HgN/A
6:50 PM57 °FPassing clouds.9 mph94%30.21 "HgN/A
6:20 PM59 °FPassing clouds.10 mph88%30.21 "HgN/A
5:50 PM63 °FSunny.13 mph83%30.21 "Hg10 mi
5:20 PM66 °FSunny.10 mph68%30.21 "Hg10 mi
4:50 PM68 °FSunny.9 mph60%30.21 "Hg10 mi
4:20 PM68 °FPassing clouds.9 mph60%30.21 "HgN/A
3:50 PM68 °FPassing clouds.9 mph60%30.21 "HgN/A
3:20 PM68 °FPassing clouds.10 mph60%30.21 "HgN/A
2:50 PM68 °FPassing clouds.8 mph60%30.21 "HgN/A
2:20 PM68 °FPassing clouds.7 mph64%30.21 "HgN/A
1:50 PM66 °FPassing clouds.6 mph73%30.21 "HgN/A
1:20 PM66 °FPassing clouds.6 mph73%30.21 "HgN/A
12:50 PM64 °FPassing clouds.5 mph78%30.21 "HgN/A
12:20 PM64 °FPassing clouds.3 mph78%30.21 "HgN/A
11:50 AM63 °FScattered clouds.2 mph83%30.21 "HgN/A
11:20 AM63 °FPartly sunny.2 mph88%30.21 "HgN/A
10:50 AM59 °FLow clouds.1 mph100%30.21 "HgN/A
10:20 AM57 °FFog.1 mph100%30.21 "Hg1 mi
9:50 AM57 °FFog.2 mph100%30.18 "Hg0 mi
9:20 AM57 °FFog.2 mph100%30.18 "Hg0 mi
8:50 AM55 °FFog.2 mph100%30.18 "Hg0 mi
8:20 AM55 °FFog.3 mph100%30.18 "Hg0 mi
7:50 AM54 °FFog.3 mph100%30.15 "Hg0 mi
7:20 AM52 °FFog.1 mph100%30.15 "Hg0 mi
Weather by CustomWeather, © 2016

See weather overviewHow to use our weather pages